Hoquiam, WA
on Saturday, November 3, 2012

Saturday
Previous Day Next Day
Daily Summary
 ActualAverageRecord
Temperature
Mean Temperature °F 48°F  
Max Temperature 57°F 54°F 70°F (1970)
Min Temperature 51°F 43°F 25°F (2003)
Degree Days
Heating Degree Days 12 17  
Month to date heating degree days 49  
Cooling Degree Days 0 0  
Month to date cooling degree days 0  
Year to date cooling degree days 23  
Growing Degree Days3 (Base °F )  
Moisture
Dew Point 54°F   
Average Humidity 98    
Maximum Humidity 100    
Minimum Humidity 93    
Precipitation
Precipitation 0.15 in 0.35 in 2.37 in (1980)
Month to date precipitation 1.03  
Year to date precipitation 47.45  
Wind
Wind Speed 8 mph   
Max Wind Speed 20 mph   
Max Gust Speed 25 mph   
Visibility 5 miles   
Events Rain   

Key: T is trace of precipitation, MM is missing value
Source: NWS Daily Summary
Time(PDT)TemperatureDew PointHumidity Pressure Visibility Wind DirectionWind SpeedGust SpeedPrecipitationEvents Conditions
12:03 AM 51.8°F 51.8°F 100% 29.94 in 2.5 miles ENE 8.1 mph - 0.00 in Rain Light Rain
12:35 AM 53.6°F 51.8°F 94% 29.95 in 2.5 miles NE 6.9 mph - 0.01 in   Overcast
12:53 AM 53.1°F 52.0°F 96% 29.96 in 2.0 miles ENE 5.8 mph - 0.01 in   Overcast
1:50 AM 53.6°F 51.8°F 94% 29.95 in 3.0 miles ENE 5.8 mph - 0.01 in   Overcast
1:53 AM 53.1°F 52.0°F 96% 29.96 in 3.0 miles ENE 4.6 mph - 0.01 in   Overcast
2:53 AM 53.1°F 53.1°F 100% 29.97 in 2.5 miles East 4.6 mph - N/A   Overcast
3:31 AM 53.6°F 53.6°F 100% 29.96 in 3.0 miles ENE 3.5 mph - N/A   Overcast
3:53 AM 53.1°F 53.1°F 100% 29.98 in 4.0 miles ENE 3.5 mph - N/A   Overcast
4:53 AM 53.1°F 53.1°F 100% 29.99 in 8.0 miles SE 4.6 mph - N/A   Overcast
5:53 AM 54.0°F 53.1°F 97% 29.99 in 9.0 miles SSE 9.2 mph - N/A   Overcast
6:53 AM 55.0°F 53.1°F 93% 30.00 in 10.0 miles South 9.2 mph - N/A   Overcast
7:53 AM 55.0°F 54.0°F 96% 30.01 in 5.0 miles South 8.1 mph - N/A   Overcast
8:53 AM 55.0°F 54.0°F 96% 30.02 in 7.0 miles SSE 5.8 mph - N/A   Overcast
9:53 AM 55.0°F 54.0°F 96% 30.02 in 10.0 miles SSE 5.8 mph - N/A   Overcast
10:53 AM 55.0°F 54.0°F 96% 30.04 in 6.0 miles South 10.4 mph - N/A   Overcast
11:08 AM 55.4°F 55.4°F 100% 30.04 in 2.0 miles South 9.2 mph - N/A   Overcast
11:15 AM 55.4°F 55.4°F 100% 30.04 in 1.5 miles South 8.1 mph - N/A   Overcast
11:53 AM 55.0°F 55.0°F 100% 30.06 in 1.8 miles South 6.9 mph - 0.01 in   Overcast
12:14 PM 55.4°F 55.4°F 100% 30.05 in 2.5 miles SSE 9.2 mph - N/A   Overcast
12:35 PM 55.4°F 55.4°F 100% 30.05 in 7.0 miles South 12.7 mph - N/A   Overcast
12:53 PM 55.9°F 55.0°F 97% 30.06 in 3.0 miles South 13.8 mph - N/A   Overcast
1:18 PM 55.4°F 55.4°F 100% 30.05 in 2.0 miles South 13.8 mph - N/A   Overcast
1:34 PM 55.4°F 55.4°F 100% 30.05 in 4.0 miles South 17.3 mph - N/A   Overcast
1:53 PM 55.9°F 55.0°F 97% 30.08 in 2.0 miles South 17.3 mph - N/A   Overcast
2:06 PM 55.4°F 55.4°F 100% 30.07 in 8.0 miles South 18.4 mph 25.3 mph N/A   Overcast
2:53 PM 55.9°F 55.0°F 97% 30.10 in 4.0 miles South 15.0 mph - N/A   Overcast
3:53 PM 55.9°F 55.0°F 97% 30.11 in 10.0 miles South 19.6 mph - N/A   Overcast
4:53 PM 55.9°F 55.0°F 97% 30.13 in 9.0 miles SSW 13.8 mph - 0.01 in Rain Light Rain
5:26 PM 55.4°F 55.4°F 100% 30.13 in 9.0 miles SSW 13.8 mph - 0.01 in Rain Light Rain
5:33 PM 55.4°F 55.4°F 100% 30.13 in 8.0 miles SSW 10.4 mph - 0.02 in Rain Light Rain
5:43 PM 55.4°F 55.4°F 100% 30.13 in 6.0 miles SSW 11.5 mph - 0.03 in Rain Light Rain
5:53 PM 55.9°F 55.0°F 97% 30.14 in 7.0 miles SSW 10.4 mph - 0.03 in Rain Light Rain
6:53 PM 55.9°F 55.0°F 97% 30.15 in 10.0 miles West 5.8 mph - 0.03 in Rain Light Rain
7:53 PM 55.0°F 54.0°F 96% 30.15 in 10.0 miles Calm Calm - 0.00 in   Overcast
8:53 PM 55.0°F 54.0°F 96% 30.15 in 10.0 miles East 3.5 mph - N/A   Overcast
9:53 PM 55.0°F 55.0°F 100% 30.17 in 10.0 miles Calm Calm - N/A   Overcast
10:30 PM 55.4°F 55.4°F 100% 30.16 in 2.0 miles East 3.5 mph - 0.02 in Rain Light Rain
10:43 PM 55.4°F 55.4°F 100% 30.16 in 3.0 miles East 3.5 mph - 0.02 in Rain Light Rain
10:53 PM 55.0°F 55.0°F 100% 30.17 in 4.0 miles East 3.5 mph - 0.03 in   Mostly Cloudy
11:02 PM 55.4°F 55.4°F 100% 30.16 in 5.0 miles Calm Calm - N/A   Overcast
11:21 PM 55.4°F 55.4°F 100% 30.16 in 6.0 miles NE 3.5 mph - 0.00 in   Overcast
11:40 PM 55.4°F 55.4°F 100% 30.16 in 3.0 miles Calm Calm - 0.01 in Rain Light Rain
11:48 PM 55.4°F 55.4°F 100% 30.16 in 2.5 miles Calm Calm - 0.02 in Rain Light Rain
11:49 PM 55.0°F 55.0°F 100% 30.17 in 2.5 miles Calm Calm - 0.02 in Rain Light Rain
Moon Phase
Nov. 03 Nov. 06 Nov. 13 Nov. 20 Nov. 28
Sunrise:08:02 AM (PDT) Moon Rise:09:36 PM (PDT)11/3
Sunset:05:55 PM (PDT) Moon Set:12:16 PM (PDT)11/3

Copyright © 2014 The Weather Underground, Inc.